Location: Golden Pond Observatory
(36.7773°N, 88.0631°W)
Time: 14:43:56
(UTC-06:00)

Hubble Space Telescope - Pass Details

Date: 25 November 2019
Orbit: 536 x 540 km, 28.5° (Epoch: 07 December)

Event Time Altitude Azimuth Distance (km) Brightness Sun altitude
Rises 17:19:52 0° 252° (WSW) 2,667 6.9 -8.6°
Reaches altitude 10° 17:22:24 10° 239° (WSW) 1,777 5.0 -9.1°
Maximum altitude 17:25:48 25° 183° (S) 1,097 2.6 -9.7°
Drops below altitude 10° 17:29:12 10° 127° (SE) 1,778 3.1 -10.4°
Enters shadow 17:30:27 - 119° (ESE) 2,205 3.5 -10.6°
